Regional Weather Roundup
Issued by NWS

Current Version | Previous Version | Text Only | Print | Product List | Glossary On
Versions: 1 2 3 4 5 6 7 8 9 10 11 12 13 14 15 16 17 18 19 20 21 22 23 24 25 26 27 28 29 30 31 32 33 34 35 36 37 38 39 40 41 42 43 44 45 46 47 48 49 50
000
ASUS44 KLIX 230810
RWRLA
LOUISIANA WEATHER ROUNDUP
NATIONAL WEATHER SERVICE NEW ORLEANS LA
200 AM CST SUN NOV 23 2014

NOTE: "FAIR" INDICATES FEW OR NO CLOUDS BELOW 12,000 FEET WITH NO
      SIGNIFICANT WEATHER AND/OR OBSTRUCTIONS TO VISIBILITY.
      SKY/WX - SKY CONDITION AND SIGNIFICANT WEATHER.
      TMP - AIR TEMPERATURE.    DP   - DEWPOINT TEMPERATURE.
      RH  - RELATIVE HUMIDITY.  PRES - PRESSURE.
      HX  - HEAT INDEX.         WCI  - WIND CHILL INDEX.

*  THESE STATIONS ARE NOT NWS OR FAA STATIONS AND ARE NOT UNDER
   NWS QUALITY CONTROL.

LAZ040-048-061>063-065-066-069-230900-
SOUTHEAST LOUISIANA

CITY           SKY/WX    TMP DP  RH WIND       PRES   REMARKS
N.O. AUDUBON     N/A     61  61 100 MISG        N/A
N.O. INTL ARPT LGT RAIN  63  61  93 E10       29.81F FOG
N.O. LAKEFRONT LGT RAIN  62  60  93 E14       29.82F
N.O. DOWNTOWN* CLOUDY    61  57  88 E12       29.82F
SLIDELL        CLOUDY    64  61  90 E7        29.83F
BATON ROUGE    CLOUDY    63  61  93 E16       29.78F
BOOTHVILLE     CLOUDY    65  65 100 E6        29.82F
BELLE CHASSE   CLOUDY    62  59  90 E10       29.81F
BOGALUSA*        N/A     64  59  83 E6        29.87F
NEW ROADS*     CLOUDY    64  62  94 SE12      29.79F
GONZALES*      CLOUDY    62  62 100 E5        29.79F
HAMMOND*       CLOUDY    64  59  82 E8        29.84F
HOUMA*         CLOUDY    64  64  99 E10       29.79F FOG
PORT FOURCHON* CLOUDY    68  66  94 E14       29.81F

$$

LAZ041-044-053-054-230900-
SOUTHWEST LOUISIANA

CITY           SKY/WX    TMP DP  RH WIND       PRES   REMARKS
LAKE CHARLES   HVY RAIN  66  65  96 E13       29.70F FOG
LAFAYETTE      LGT RAIN  65  63  93 E6        29.76F
PATTERSON      CLOUDY    66  64  94 E8        29.77F
SALT POINT       N/A     69  65  86 E8G16     29.73F
NEW IBERIA     RAIN      66  63  90 E10       29.75F
CHENAULT AIRPK RAIN      65  64  98 E9        29.72F

$$

LAZ027-028-230900-
CENTRAL LOUISIANA

CITY           SKY/WX    TMP DP  RH WIND       PRES   REMARKS
FORT POLK      RAIN      63  62  96 SE8       29.73F FOG
ALEXANDRIA INT LGT RAIN  64  62  93 SE16      29.73F
ALEXANDRIA     LGT RAIN  64  62  93 SE13G23   29.74F

$$

LAZ001-002-230900-
NORTHWEST LOUISIANA

CITY           SKY/WX    TMP DP  RH WIND       PRES   REMARKS
SHREVEPORT     LGT RAIN  62  61  96 SE7       29.70F FOG
BARKSDALE AFB  CLOUDY    61  61 100 SE10      29.71F
DTN SHREVEPORT LGT RAIN  61  60  97 SE8       29.71F FOG

$$

LAZ014-016-230900-
NORTHEAST LOUISIANA

CITY           SKY/WX    TMP DP  RH WIND       PRES   REMARKS
MONROE         CLOUDY    61  57  87 E6        29.78F
TALLULAH       CLOUDY    62  58  86 SE16      29.80F

$$



USA.gov is the U.S. government's official web portal to all federal, state and local government web resources and services.